Regional Weather Roundup
Issued by NWS Sioux Falls, SD

Home | Current Version | Previous Version | Graphics & Text | Print | Product List | Glossary On
Versions: 1 2 3 4 5 6 7 8 9 10 11 12 13 14 15 16 17 18 19 20 21 22 23 24 25 26 27 28 29 30 31 32 33 34 35 36 37 38 39 40 41 42 43 44 45 46 47 48 49 50
000
ASUS43 KFSD 230110
RWRFSD

WEATHER ROUNDUP FOR SE SOUTH DAKOTA/SW MINNESOTA/NW IOWA
NATIONAL WEATHER SERVICE SIOUX FALLS SD
800 PM CDT THU JUN 22 2017

NOTE: "FAIR" INDICATES FEW OR NO CLOUDS BELOW 12,000 FEET WITH NO
SIGNIFICANT WEATHER AND OR OBSTRUCTIONS TO VISIBILITY.


SDZ038>040-050-052>070-230200-
SOUTHEAST SOUTH DAKOTA

CITY           SKY/WX    TMP DP  RH WIND       PRES   REMARKS
BROOKINGS      SUNNY     70  53  54 N6        29.82
CHAMBERLAIN    SUNNY     78  49  36 N3        29.85R
HURON          MOSUNNY   74  52  46 SW5       29.81R
MADISON        FAIR      68  48  49 N10       29.83R
MITCHELL       MOSUNNY   75  46  35 N9        29.83R
SIOUX FALLS    PTSUNNY   70  52  52 N10       29.80R
WINNER         FAIR      79  44  28 N10       29.87R
YANKTON        MOSUNNY   74  64  71 N10       29.79R
$$

MNZ071-072-080-081-089-090-097-098-230200-
SOUTHWEST MINNESOTA

CITY           SKY/WX    TMP DP  RH WIND       PRES   REMARKS
FAIRMONT       CLOUDY    68  62  81 N15       29.75R
JACKSON        CLOUDY    68  59  73 N9        29.78R
LUVERNE        CLOUDY    68  50  52 N12       29.80R
MARSHALL       PTSUNNY   70  55  60 NW6       29.79S
MONTEVIDEO     SUNNY     70  57  64 W3        29.78S
PIPESTONE      CLOUDY    70  48  46 N6        29.81S
REDWOOD FALLS  CLOUDY    69  57  65 NW7       29.77R
TRACY          CLOUDY    67  57  68 NW6       29.80S
WINDOM         CLOUDY    66  57  72 N10       29.79R
WORTHINGTON    CLOUDY    67  56  67 N14       29.80R
$$

IAZ001>003-012>014-020>022-031-032-NEZ013-014-SDZ071-230200-
NORTHWEST IOWA

CITY           SKY/WX    TMP DP  RH WIND       PRES   REMARKS
CHEROKEE       CLOUDY    69  64  81 NE12G20   29.74R
DENISON        CLOUDY    82  68  61 N7        29.69R
ESTHERVILLE    CLOUDY    67  63  87 N12       29.75R
LE MARS        CLOUDY    73  64  73 N13G18    29.76R
ORANGE CITY    CLOUDY    72  64  78 N8G17     29.76R
SHELDON        MOCLDY    72  63  73 N18G25    29.75R
SIOUX CITY     CLOUDY    77  66  68 N15G24    29.72R
SPENCER        CLOUDY    70  62  76 N17       29.75R
STORM LAKE     CLOUDY    72  64  78 N20G26    29.73R
$$

ABBREVIATIONS USED IN REMARKS
   TC - TEMPERATURE IN CELSIUS
  WCI - WIND CHILL INDEX
   HX - HEAT INDEX
  VSB - VISIBILITY




USA.gov is the U.S. government's official web portal to all federal, state and local government web resources and services.